Harrisburg, IL

9:01 PM CDT on March 24, 2017 (GMT -0500)
Harrisburg-Raleigh

Weather History for KHSB - March, 2012

Change the Weather History Date:

Tuesday, March 20, 2012

  Actual Average (KMWA) Record (KMWA)
Temperature  
Mean Temperature 74 °F -  
Max Temperature 86 °F 56 °F 82 °F (2012)
Min Temperature 62 °F 37 °F 17 °F (1990)
Cooling Degree Days 9    
Growing Degree Days 24 (Base 50)    
Moisture  
Dew Point 55 °F    
Average Humidity 53    
Maximum Humidity 77    
Minimum Humidity 31    
Precipitation  
Precipitation 0.00 in - - ()
Sea Level Pressure  
Sea Level Pressure 29.99 in    
Wind  
Wind Speed 10 mph (SSE)    
Max Wind Speed 26 mph    
Max Gust Speed 32 mph    
Visibility 10 miles    
Events      
Averages and records for this station are not official NWS values.
T = Trace of Precipitation, MM = Missing Value Source: NWS Daily Summary

Daily Weather History Graph

Daily Weather History Graph

Search for Another Location

Airport or City:

Trip Planner

Search our weather history database for the weather conditions in past years. The results will help you decide how hot, cold, wet, or windy it might be!

Date:

Astronomy

Mar. 20, 2012 Rise Set
Actual Time 6:56 AM CDT 7:06 PM CDT
Civil Twilight 6:30 AM CDT 7:32 PM CDT
Nautical Twilight 6:00 AM CDT 8:03 PM CDT
Astronomical Twilight 5:29 AM CDT 8:34 PM CDT
Moon 5:37 AM CDT (3/20) 5:35 PM CDT (3/20)
Length of Visible Light 13h 02m
Length of Day
12h 09m
Waning Crescent, 4% of the Moon is Illuminated
Mar 20
Waning Crescent
Mar 22
New
Mar 30
First Quarter
Apr 6
Full
Apr 13
Last Quarter

Hourly Weather History & Observations

Time (CDT) Temp. Heat Index Dew Point Humidity Pressure Visibility Wind Dir Wind Speed Gust Speed Precip Events Conditions
12:55 AM 68.0 °F - 55.4 °F 64% 29.98 in 10.0 mi SSE 6.9 mph - N/A   Clear
3:55 AM 64.4 °F - 55.4 °F 73% 29.97 in 10.0 mi SSE 4.6 mph - N/A   Clear
4:15 AM 64.4 °F - 55.4 °F 73% 29.97 in 10.0 mi South 5.8 mph - N/A   Clear
4:35 AM 66.2 °F - 55.4 °F 68% 29.97 in 10.0 mi South 5.8 mph - N/A   Clear
4:55 AM 64.4 °F - 55.4 °F 73% 29.97 in 10.0 mi SSE 5.8 mph - N/A   Clear
5:15 AM 64.4 °F - 55.4 °F 73% 29.97 in 10.0 mi SE 6.9 mph - N/A   Clear
5:35 AM 62.6 °F - 55.4 °F 77% 29.98 in 10.0 mi SE 8.1 mph - N/A   Clear
5:55 AM 62.6 °F - 55.4 °F 77% 29.97 in 10.0 mi SE 8.1 mph - N/A   Clear
6:15 AM 62.6 °F - 55.4 °F 77% 29.98 in 10.0 mi SSE 6.9 mph - N/A   Clear
6:35 AM 64.4 °F - 55.4 °F 73% 29.99 in 10.0 mi SE 9.2 mph - N/A   Clear
7:15 AM 62.6 °F - 55.4 °F 77% 30.01 in 10.0 mi SE 5.8 mph - N/A   Clear
7:35 AM 62.6 °F - 55.4 °F 77% 30.01 in 10.0 mi SE 5.8 mph - N/A   Clear
7:55 AM 64.4 °F - 55.4 °F 73% 30.01 in 10.0 mi SE 8.1 mph - N/A   Clear
8:15 AM 66.2 °F - 57.2 °F 73% 30.01 in 10.0 mi SE 8.1 mph - N/A   Clear
8:35 AM 68.0 °F - 55.4 °F 64% 30.02 in 10.0 mi SE 9.2 mph - N/A   Clear
8:55 AM 69.8 °F - 55.4 °F 60% 30.03 in 10.0 mi SE 9.2 mph - N/A   Clear
9:15 AM 71.6 °F - 55.4 °F 57% 30.03 in 10.0 mi SSE 11.5 mph - N/A   Clear
9:35 AM 73.4 °F - 55.4 °F 53% 30.04 in 10.0 mi SSE 11.5 mph - N/A   Clear
9:55 AM 73.4 °F - 55.4 °F 53% 30.04 in 10.0 mi SSE 11.5 mph - N/A   Clear
10:15 AM 75.2 °F - 53.6 °F 47% 30.04 in 10.0 mi South 9.2 mph 16.1 mph N/A   Clear
10:35 AM 77.0 °F - 53.6 °F 44% 30.05 in 10.0 mi South 13.8 mph 17.3 mph N/A   Clear
10:55 AM 77.0 °F - 53.6 °F 44% 30.05 in 10.0 mi South 12.7 mph - N/A   Clear
11:15 AM 78.8 °F - 53.6 °F 42% 30.05 in 10.0 mi South 12.7 mph 17.3 mph N/A   Clear
11:35 AM 78.8 °F - 53.6 °F 42% 30.04 in 10.0 mi South 17.3 mph 25.3 mph N/A   Clear
11:55 AM 80.6 °F 80.3 °F 53.6 °F 39% 30.04 in 10.0 mi South 18.4 mph 26.5 mph N/A   Clear
12:15 PM 80.6 °F 80.3 °F 53.6 °F 39% 30.03 in 10.0 mi South 16.1 mph 26.5 mph N/A   Clear
12:35 PM 80.6 °F 80.3 °F 53.6 °F 39% 30.03 in 10.0 mi South 26.5 mph 32.2 mph N/A   Clear
1:15 PM 82.4 °F 81.4 °F 53.6 °F 37% 30.02 in 10.0 mi South 16.1 mph 26.5 mph N/A   Clear
1:35 PM 82.4 °F 81.4 °F 53.6 °F 37% 30.01 in 10.0 mi South 19.6 mph 24.2 mph N/A   Clear
1:55 PM 82.4 °F - 51.8 °F 35% 29.99 in 10.0 mi South 19.6 mph 26.5 mph N/A   Clear
2:15 PM 82.4 °F - 51.8 °F 35% 29.98 in 10.0 mi South 19.6 mph 27.6 mph N/A   Clear
2:35 PM 84.2 °F - 51.8 °F 33% 29.98 in 10.0 mi South 19.6 mph - N/A   Clear
2:55 PM 84.2 °F 82.8 °F 53.6 °F 35% 29.96 in 10.0 mi SSE 16.1 mph 19.6 mph N/A   Clear
3:15 PM 84.2 °F - 51.8 °F 33% 29.95 in 10.0 mi SSE 20.7 mph 25.3 mph N/A   Clear
3:35 PM 86.0 °F - 51.8 °F 31% 29.95 in 10.0 mi SSE 18.4 mph 26.5 mph N/A   Clear
3:55 PM 86.0 °F - 51.8 °F 31% 29.94 in 10.0 mi SSE 15.0 mph 26.5 mph N/A   Clear
4:15 PM 86.0 °F - 51.8 °F 31% 29.93 in 10.0 mi SSE 18.4 mph 23.0 mph N/A   Clear
4:35 PM 86.0 °F - 51.8 °F 31% 29.93 in 10.0 mi South 17.3 mph 25.3 mph N/A   Scattered Clouds
4:55 PM 86.0 °F - 51.8 °F 31% 29.93 in 10.0 mi SSE 21.9 mph - N/A   Scattered Clouds
5:15 PM 84.2 °F - 51.8 °F 33% 29.93 in 10.0 mi SE 15.0 mph - N/A   Scattered Clouds
5:35 PM 82.4 °F - 51.8 °F 35% 29.92 in 10.0 mi SE 13.8 mph - N/A   Scattered Clouds
5:55 PM 82.4 °F - 51.8 °F 35% 29.93 in 10.0 mi SE 13.8 mph 19.6 mph N/A   Mostly Cloudy
6:15 PM 78.8 °F - 55.4 °F 44% 29.93 in 10.0 mi SE 10.4 mph - N/A   Mostly Cloudy
6:35 PM 77.0 °F - 57.2 °F 50% 29.94 in 7.0 mi SE 9.2 mph - N/A   Mostly Cloudy
6:55 PM 77.0 °F - 55.4 °F 47% 29.93 in 10.0 mi ESE 10.4 mph - N/A   Scattered Clouds
7:15 PM 77.0 °F - 55.4 °F 47% 29.94 in 10.0 mi SE 10.4 mph - N/A   Clear
7:35 PM 75.2 °F - 55.4 °F 50% 29.95 in 10.0 mi SE 9.2 mph - N/A   Clear
7:55 PM 73.4 °F - 57.2 °F 57% 29.95 in 10.0 mi SE 10.4 mph - N/A   Clear
8:15 PM 73.4 °F - 57.2 °F 57% 29.96 in 10.0 mi SE 10.4 mph - N/A   Clear
8:35 PM 71.6 °F - 57.2 °F 60% 29.97 in 7.0 mi ESE 8.1 mph - N/A   Clear
8:55 PM 71.6 °F - 57.2 °F 60% 29.97 in 10.0 mi ESE 6.9 mph - N/A   Clear
9:15 PM 71.6 °F - 57.2 °F 60% 29.98 in 10.0 mi ESE 6.9 mph - N/A   Clear
9:35 PM 71.6 °F - 57.2 °F 60% 29.98 in 10.0 mi ESE 8.1 mph - N/A   Clear
9:55 PM 71.6 °F - 55.4 °F 57% 29.99 in 10.0 mi ESE 9.2 mph - N/A   Clear
10:15 PM 71.6 °F - 55.4 °F 57% 30.00 in 10.0 mi ESE 10.4 mph - N/A   Clear
10:35 PM 71.6 °F - 55.4 °F 57% 30.00 in 10.0 mi SE 10.4 mph - N/A   Clear
10:55 PM 69.8 °F - 55.4 °F 60% 30.00 in 10.0 mi SE 8.1 mph - N/A   Clear
11:15 PM 69.8 °F - 55.4 °F 60% 30.00 in 10.0 mi ESE 4.6 mph - N/A   Clear
11:35 PM 68.0 °F - 55.4 °F 64% 30.01 in 10.0 mi SE 5.8 mph - N/A   Clear
11:55 PM 68.0 °F - 55.4 °F 64% 30.01 in 10.0 mi ESE 8.1 mph - N/A   Clear